User: anonymous   Login
Location: Roanoke
(37.2710°N, 79.9420°W)
Time: 07:17:23
(UTC-04:00)
Language:

FENGYUN 3A - Orbit

View from above orbital plane
View from above orbital plane
View from above satellite
View from above satellite

Ground track
Ground track

The orbit data is extracted from the following two-line orbital elements,

1 32958U 08026A   14297.12280450  .00000140  00000-0  86495-4 0  4792
2 32958 098.5396 351.5151 0009188 199.6155 160.4699 14.19481723332139
Epoch (UTC): 24 October 2014 02:56:50
Eccentricity: 0.0009188
inclination: 98.5396°
perigee height: 820 km
apogee height: 834 km
right ascension of ascending node: 351.5151°
argument of perigee: 199.6155°
revolutions per day: 14.19481723
mean anomaly at epoch: 160.4699°
orbit number at epoch: 33213

The dashed part of the orbit path shows where the satellite is in the earth's shadow,  

DLR